FW0887 Weather Reports


time (UTC)temp
C
wind
direction
speed
KPH
gust
KPH
rain 1hr
cm
rain 24hr
cm
rain mn
cm
humidity
%
barometer
mb
20260904173756 26 203 1.6 3.2 0.00 0.03 0.03 58 1013.8
20260904173052 25 221 1.6 11.3 0.00 0.03 0.03 59 1012.2
20260904171558 26 239 3.2 9.7 0.00 0.03 0.03 58 1012.2
20260904170052 26 222 4.8 12.9 0.00 0.03 0.03 58 1012.0
20260904164550 26 225 3.2 16.1 0.00 0.05 0.03 58 1012.0
20260904163714 26 203 12.9 16.1 0.00 0.05 0.03 56 1013.9
20260904163149 26 229 3.2 16.1 0.00 0.05 0.03 58 1012.1
20260904161558 26 202 3.2 24.1 0.00 0.05 0.03 58 1012.1
20260904160047 26 219 4.8 24.1 0.00 0.05 0.03 58 1012.0
20260904154547 27 229 12.9 27.4 0.00 0.20 0.03 56 1012.0
20260904153746 27 225 14.5 19.3 0.00 0.05 0.03 57 1014.0
20260904153052 27 207 11.3 24.1 0.00 0.20 0.03 58 1012.2
20260904151547 27 204 9.7 22.5 0.00 0.20 0.03 57 1012.2
20260904150044 27 190 12.9 24.1 0.00 0.20 0.03 57 1012.2
20260904144544 27 248 9.7 27.4 0.00 0.28 0.03 57 1012.4
20260904143715 27 203 14.5 24.1 0.00 0.25 0.03 58 1014.5
20260904143041 27 201 9.7 25.7 0.00 0.28 0.03 59 1012.6
20260904141540 27 213 6.4 22.5 0.00 0.28 0.03 59 1012.7
20260904140041 27 214 14.5 19.3 0.00 0.28 0.03 57 1012.8
20260904134537 27 206 12.9 22.5 0.00 0.33 0.03 59 1013.0
20260904133746 28 225 8.0 12.9 0.00 0.33 0.03 61 1015.2
20260904133035 27 212 8.0 19.3 0.00 0.33 0.03 59 1013.2
20260904131534 27 205 12.9 22.5 0.00 0.33 0.03 59 1013.4
20260904130032 27 201 6.4 25.7 0.00 0.33 0.03 60 1013.6
20260904124528 27 239 6.4 19.3 0.00 0.33 0.03 59 1014.0
20260904123717 26 225 16.1 27.4 0.00 0.33 0.03 61 1016.1
20260904123024 26 230 12.9 27.4 0.00 0.33 0.03 61 1014.4
20260904121522 26 213 14.5 30.6 0.00 0.33 0.03 64 1014.4
20260904120027 25 229 6.4 24.1 0.00 0.33 0.03 64 1014.8
20260904114518 25 213 8.0 25.7 0.00 0.33 0.03 65 1014.7
20260904113647 25 225 4.8 9.7 0.00 0.33 0.03 67 1016.7
20260904113015 24 219 6.4 16.1 0.00 0.33 0.03 68 1015.0
20260904111513 25 224 12.9 22.5 0.00 0.33 0.03 65 1015.3
20260904110011 25 215 4.8 24.1 0.00 0.33 0.03 67 1015.4
20260904104510 24 213 14.5 30.6 0.00 0.33 0.03 65 1015.7
20260904103736 25 225 9.7 24.1 0.03 0.33 0.03 68 1017.6
20260904103006 25 240 17.7 27.4 0.03 0.33 0.03 67 1016.0
20260904101505 23 220 4.8 20.9 0.03 0.33 0.03 72 1016.2
20260904100059 23 217 8.0 17.7 0.03 0.33 0.03 74 1016.4
20260904094557 22 211 8.0 27.4 0.03 0.33 0.03 76 1016.8
20260904093615 22 203 8.0 14.5 0.00 0.30 0.00 79 1018.5
20260904093100 22 213 9.7 16.1 0.00 0.30 0.00 78 1016.9
20260904091547 21 217 8.0 17.7 0.00 0.30 0.00 79 1017.2
20260904090043 20 188 4.8 12.9 0.00 0.30 0.00 82 1017.5
20260904084539 19 204 3.2 11.3 0.00 0.30 0.00 84 1017.5
20260904083646 18 180 3.2 4.8 0.00 0.30 0.00 86 1019.2
20260904083037 18 207 3.2 8.0 0.00 0.30 0.00 85 1017.8
20260904081530 18 196 3.2 6.4 0.00 0.30 0.00 86 1018.0
20260904080028 17 196 3.2 6.4 0.00 0.30 0.00 86 1018.2
20260904074526 17 194 3.2 8.0 0.00 0.30 0.00 87 1018.2
20260904073617 17 203 4.8 6.4 0.00 0.30 0.00 89 1019.3
20260904073046 17 195 3.2 6.4 0.00 0.30 0.00 88 1018.1
20260904071522 16 193 3.2 6.4 0.00 0.30 0.00 89 1018.3
20260904070019 16 205 3.2 6.4 0.00 0.30 0.00 90 1018.4
20260904064520 16 194 3.2 8.0 0.00 0.30 0.00 91 1018.2
20260904063547 16 180 1.6 4.8 0.00 0.30 0.00 92 1019.3
20260904063016 16 215 1.6 4.8 0.00 0.30 0.00 92 1018.3
20260904061514 15 187 0.0 3.2 0.00 0.30 0.00 92 1018.4
20260904060013 15 213 1.6 6.4 0.00 0.30 0.00 92 1018.2
20260904054513 15 202 1.6 6.4 0.00 0.30 0.00 93 1018.3
20260904053623 15 203 1.6 3.2 0.00 0.30 0.00 92 1019.3
20260904053011 15 188 0.0 4.8 0.00 0.30 0.00 93 1018.5
20260904051513 15 177 1.6 4.8 0.00 0.30 0.00 93 1018.5
20260904050009 15 190 1.6 4.8 0.00 0.30 0.00 93 1018.5
20260904044510 15 194 1.6 4.8 0.00 0.30 0.00 93 1018.4
20260904043713 15 180 3.2 3.2 0.00 0.30 0.00 93 1019.4
20260904043008 15 182 1.6 4.8 0.00 0.30 0.00 93 1018.6
20260904041506 14 181 0.0 0.0 0.00 0.30 0.00 92 1018.6
20260904040007 13 179 0.0 0.0 0.00 0.30 0.00 92 1018.8
20260904034505 13 179 0.0 0.0 0.00 0.30 0.00 92 1018.9
20260904033005 13 179 0.0 0.0 0.00 0.30 0.00 91 1019.0
20260904031503 13 179 0.0 0.0 0.00 0.30 0.00 91 1019.1
20260904030658 13 0.0 0.0 0.00 0.30 0.00 91 1020.2
20260904030002 13 179 0.0 0.0 0.00 0.30 0.00 91 1019.2
20260904024502 13 179 0.0 0.0 0.00 0.30 0.00 91 1019.2
20260904023001 13 179 0.0 0.0 0.00 0.30 0.00 92 1019.2
20260904021503 13 179 0.0 0.0 0.00 0.30 0.00 92 1019.3
20260904020611 13 0.0 0.0 0.00 0.30 0.00 91 1020.5
20260904020123 13 179 0.0 0.0 0.00 0.30 0.00 91 1019.5
20260904014646 13 179 0.0 0.0 0.00 0.30 0.00 91 1019.4
20260904013108 13 179 0.0 0.0 0.00 0.30 0.00 91 1019.3
20260904011605 13 179 0.0 0.0 0.00 0.30 0.00 91 1019.3
20260904010543 14 0.0 0.0 0.00 0.30 0.00 91 1020.7
20260904010058 14 179 0.0 0.0 0.00 0.30 0.00 91 1019.4
20260904004553 14 179 0.0 0.0 0.00 0.30 0.00 91 1019.5
20260904003059 14 179 0.0 1.6 0.00 0.30 0.00 91 1019.6
20260904001549 15 179 0.0 0.0 0.00 0.30 0.00 91 1019.6
20260904000513 15 0.0 0.0 0.00 0.30 0.00 92 1021.2
20260904000046 15 162 0.0 0.0 0.00 0.30 0.00 92 1019.8
20260903234545 15 28 0.0 0.0 0.00 0.30 0.00 91 1019.8
20260903233044 15 28 0.0 0.0 0.00 0.30 0.00 92 1020.1
20260903231543 15 28 0.0 0.0 0.00 0.30 0.00 92 1020.1
20260903230544 15 0.0 0.0 0.00 0.30 0.00 92 1021.6
20260903230057 15 28 0.0 0.0 0.00 0.30 0.00 92 1020.2
20260903224541 15 28 0.0 0.0 0.00 0.30 0.00 92 1020.1
20260903223040 15 28 0.0 0.0 0.00 0.30 0.00 91 1019.9
20260903221540 15 28 0.0 0.0 0.00 0.30 0.00 91 1020.0
20260903220515 15 0.0 0.0 0.00 0.30 0.30 91 1021.3
20260903220040 15 28 0.0 0.0 0.00 0.30 0.00 91 1020.0
20260903214543 15 28 0.0 0.0 0.00 0.30 0.30 91 1019.8
20260903213039 15 28 0.0 0.0 0.00 0.30 0.30 91 1020.0
20260903211535 15 28 0.0 0.0 0.00 0.30 0.30 91 1020.4
20260903210627 16 0.0 0.0 0.00 0.30 0.30 91 1021.4
20260903210035 15 28 0.0 0.0 0.00 0.30 0.30 91 1020.2
20260903204535 15 28 0.0 0.0 0.00 0.30 0.30 91 1020.3
20260903203034 15 28 0.0 0.0 0.00 0.30 0.30 91 1020.1
20260903201535 16 28 0.0 0.0 0.00 0.30 0.30 91 1020.1
20260903200556 16 0.0 0.0 0.00 0.30 0.30 91 1021.2
20260903200038 16 28 0.0 0.0 0.00 0.30 0.30 91 1020.1
20260903194534 16 28 0.0 0.0 0.00 0.30 0.30 91 1020.0
20260903193034 16 28 0.0 0.0 0.00 0.30 0.30 90 1020.1
20260903191531 16 28 0.0 0.0 0.00 0.30 0.30 90 1020.2
20260903190537 16 0.0 0.0 0.00 0.30 0.30 90 1020.9
20260903190030 16 28 0.0 0.0 0.00 0.30 0.30 90 1020.3
20260903184530 16 28 0.0 1.6 0.00 0.30 0.30 90 1020.3
20260903183030 16 28 0.0 0.0 0.00 0.30 0.30 90 1020.1
20260903181529 16 28 0.0 0.0 0.00 0.30 0.30 90 1020.0
20260903180508 16 0.0 0.0 0.00 0.30 0.30 90 1020.4
20260903180048 16 28 0.0 0.0 0.00 0.30 0.30 90 1019.9
20260903174528 16 28 0.0 0.0 0.05 0.30 0.30 89 1019.7